EW4729 Weather Reports


Display with metric or nautical units.
time (UTC)temp
F
wind
direction
speed
MPH
gust
MPH
rain 1hr
in
rain 24hr
in
rain mn
in
humidity
%
barometer
mb
20260902024053 86 148 0.0 4.0 0.00 0.00 0.00 74 1014.2
20260902023551 86 0 1.0 5.0 0.00 0.00 0.00 74 1014.1
20260902023103 86 175 2.0 6.0 0.00 0.00 0.00 74 1014.0
20260902022555 86 0 0.0 6.0 0.00 0.00 0.00 73 1014.0
20260902022053 86 0 2.0 9.0 0.00 0.00 0.00 73 1013.9
20260902021608 87 144 3.0 9.0 0.00 0.00 0.00 72 1013.8
20260902021053 87 171 2.0 7.0 0.00 0.00 0.00 72 1013.9
20260902020553 87 155 2.0 7.0 0.00 0.00 0.00 71 1013.8
20260902020056 87 138 2.0 9.0 0.00 0.00 0.00 70 1013.7
20260902015554 87 169 3.0 10.0 0.00 0.00 0.00 69 1013.7
20260902015052 87 146 3.0 10.0 0.00 0.00 0.00 68 1013.7
20260902014602 87 110 1.0 6.0 0.00 0.00 0.00 65 1013.6
20260902014051 88 0 0.0 0.0 0.00 0.00 0.00 64 1013.5
20260902013553 88 0 0.0 0.0 0.00 0.00 0.00 64 1013.3
20260902013101 89 0 0.0 0.0 0.00 0.00 0.00 64 1013.3
20260902012553 89 0 0.0 0.0 0.00 0.00 0.00 63 1013.3
20260902012053 90 0 0.0 0.0 0.00 0.00 0.00 63 1013.3
20260902011602 90 0 0.0 0.0 0.00 0.00 0.00 62 1013.2
20260902011053 90 0 0.0 0.0 0.00 0.00 0.00 62 1013.2
20260902010552 91 0 0.0 0.0 0.00 0.00 0.00 62 1013.2
20260902010059 91 0 0.0 0.0 0.00 0.00 0.00 62 1013.1
20260902005553 91 0 0.0 0.0 0.00 0.00 0.00 61 1013.1
20260902005055 91 0 0.0 0.0 0.00 0.00 0.00 61 1013.0
20260902004559 92 0 0.0 1.0 0.00 0.00 0.00 60 1012.9
20260902004053 92 0 0.0 2.0 0.00 0.00 0.00 60 1013.0
20260902003553 92 0 0.0 5.0 0.00 0.00 0.00 59 1013.0
20260902003134 92 142 0.0 5.0 0.00 0.00 0.00 58 1012.9
20260902002552 92 140 2.0 5.0 0.00 0.00 0.00 58 1012.9
20260902002052 93 0 0.0 4.0 0.00 0.00 0.00 58 1013.0
20260902001607 93 101 1.0 6.0 0.00 0.00 0.00 58 1012.9
20260902001052 93 0 1.0 6.0 0.00 0.00 0.00 58 1013.1
20260902000552 93 0 0.0 6.0 0.00 0.00 0.00 58 1013.0
20260902000059 93 0 0.0 7.0 0.00 0.00 0.00 58 1013.1
20260901235554 93 86 1.0 7.0 0.00 0.00 0.00 58 1013.0
20260901235054 93 72 3.0 7.0 0.00 0.00 0.00 58 1013.1
20260901234601 93 143 2.0 6.0 0.00 0.00 0.00 58 1013.2
20260901234054 93 0 2.0 7.0 0.00 0.00 0.00 58 1013.2
20260901233553 94 103 1.0 8.0 0.00 0.00 0.00 58 1013.2
20260901233059 94 128 2.0 10.0 0.00 0.00 0.00 58 1013.2
20260901232553 94 0 3.0 10.0 0.00 0.00 0.00 58 1013.1
20260901232053 94 123 4.0 10.0 0.00 0.00 0.00 58 1013.2
20260901231605 94 70 3.0 10.0 0.00 0.00 0.00 58 1013.1
20260901231053 94 103 3.0 9.0 0.00 0.00 0.00 58 1013.2
20260901230553 94 117 3.0 10.0 0.00 0.00 0.00 57 1013.2
20260901230056 95 0 2.0 10.0 0.00 0.00 0.00 57 1013.2
20260901225553 95 128 3.0 12.0 0.00 0.00 0.00 56 1013.1
20260901225053 96 128 4.0 12.0 0.00 0.00 0.00 56 1013.1
20260901224605 96 86 5.0 12.0 0.00 0.00 0.00 55 1013.0
20260901224052 96 74 3.0 10.0 0.00 0.00 0.00 56 1012.9
20260901223553 96 108 4.0 10.0 0.00 0.00 0.00 55 1012.9
20260901223104 96 79 3.0 11.0 0.00 0.00 0.00 55 1013.0
20260901222552 96 121 5.0 11.0 0.00 0.00 0.00 54 1013.0
20260901222052 96 85 3.0 13.0 0.00 0.00 0.00 54 1013.0
20260901221619 96 125 5.0 13.0 0.00 0.00 0.00 54 1012.9
20260901221053 96 65 5.0 13.0 0.00 0.00 0.00 55 1012.9
20260901220552 96 62 5.0 11.0 0.00 0.00 0.00 54 1013.0
20260901220100 96 127 4.0 12.0 0.00 0.00 0.00 54 1013.1
20260901215553 96 131 3.0 13.0 0.00 0.00 0.00 53 1013.2
20260901215053 96 85 4.0 13.0 0.00 0.00 0.00 54 1013.2
20260901214555 96 57 5.0 12.0 0.00 0.00 0.00 53 1013.2
20260901214052 96 90 5.0 12.0 0.00 0.00 0.00 53 1013.2
20260901213552 96 96 6.0 13.0 0.00 0.00 0.00 53 1013.2
20260901213059 97 107 6.0 13.0 0.00 0.00 0.00 52 1013.2
20260901212551 98 59 6.0 13.0 0.00 0.00 0.00 50 1013.2
20260901212052 98 102 4.0 10.0 0.00 0.00 0.00 50 1013.1
20260901211600 99 70 3.0 11.0 0.00 0.00 0.00 50 1013.1
20260901211052 99 96 2.0 11.0 0.00 0.00 0.00 50 1013.0
20260901210553 99 49 3.0 9.0 0.00 0.00 0.00 50 1013.2
20260901210127 99 51 3.0 10.0 0.00 0.00 0.00 50 1013.2
20260901205553 99 151 3.0 11.0 0.00 0.00 0.00 49 1013.3
20260901205052 99 107 3.0 11.0 0.00 0.00 0.00 49 1013.3
20260901204601 99 108 5.0 11.0 0.00 0.00 0.00 49 1013.4
20260901204052 98 192 2.0 8.0 0.00 0.00 0.00 51 1013.3
20260901203551 97 99 3.0 10.0 0.00 0.00 0.00 51 1013.6
20260901203102 97 101 2.0 12.0 0.00 0.00 0.00 51 1013.6
20260901202553 97 74 4.0 12.0 0.00 0.00 0.00 51 1013.7
20260901202056 98 42 6.0 12.0 0.00 0.00 0.00 50 1013.8
20260901201601 98 76 4.0 10.0 0.00 0.00 0.00 50 1013.7
20260901201054 98 252 3.0 8.0 0.00 0.00 0.00 49 1013.8
20260901200556 97 296 2.0 13.0 0.00 0.00 0.00 49 1013.9
20260901195552 97 74 4.0 13.0 0.00 0.00 0.00 50 1014.2
20260901195052 97 26 2.0 10.0 0.00 0.00 0.00 50 1014.1
20260901194606 97 134 4.0 10.0 0.00 0.00 0.00 51 1014.2
20260901194053 96 59 3.0 9.0 0.00 0.00 0.00 51 1014.3
20260901193557 96 144 3.0 8.0 0.00 0.00 0.00 54 1014.4
20260901193108 96 50 1.0 8.0 0.00 0.00 0.00 54 1014.4
20260901192552 96 193 3.0 10.0 0.00 0.00 0.00 56 1014.5
20260901192052 95 186 1.0 10.0 0.00 0.00 0.00 57 1014.5
20260901191615 95 171 2.0 9.0 0.00 0.00 0.00 58 1014.6
20260901191053 94 0 3.0 10.0 0.00 0.00 0.00 58 1014.7
20260901190552 94 171 5.0 10.0 0.00 0.00 0.00 59 1014.8
20260901190135 94 177 4.0 9.0 0.00 0.00 0.00 59 1014.9
20260901185553 94 113 4.0 9.0 0.00 0.00 0.00 59 1015.0
20260901185052 94 107 3.0 9.0 0.00 0.00 0.00 58 1015.0
20260901184602 94 123 3.0 7.0 0.00 0.00 0.00 58 1015.0
20260901184053 94 153 3.0 5.0 0.00 0.00 0.00 58 1015.1
20260901183553 94 57 1.0 9.0 0.00 0.00 0.00 59 1015.1
20260901183108 94 90 2.0 9.0 0.00 0.00 0.00 59 1015.2
20260901182552 94 74 2.0 7.0 0.00 0.00 0.00 59 1015.4
20260901182053 94 153 3.0 7.0 0.00 0.00 0.00 59 1015.4
20260901181601 94 65 2.0 8.0 0.00 0.00 0.00 60 1015.6
20260901181052 94 75 2.0 8.0 0.00 0.00 0.00 59 1015.7
20260901180552 93 100 1.0 8.0 0.00 0.00 0.00 61 1015.8
20260901175555 93 71 2.0 9.0 0.00 0.00 0.00 61 1016.1
20260901175054 93 5 3.0 9.0 0.00 0.00 0.00 60 1016.2
20260901174558 92 105 4.0 9.0 0.00 0.00 0.00 61 1016.2
20260901174053 93 38 3.0 7.0 0.00 0.00 0.00 62 1016.3
20260901173553 92 65 2.0 7.0 0.00 0.00 0.00 62 1016.3
20260901173106 93 67 3.0 7.0 0.00 0.00 0.00 62 1016.2
20260901172552 93 94 2.0 7.0 0.00 0.00 0.00 62 1016.4
20260901172056 93 102 3.0 7.0 0.00 0.00 0.00 61 1016.5
20260901171633 93 90 2.0 6.0 0.00 0.00 0.00 61 1016.5
20260901171052 93 0 0.0 6.0 0.00 0.00 0.00 62 1016.5
20260901170553 93 59 2.0 6.0 0.00 0.00 0.00 62 1016.6
20260901170108 93 38 2.0 5.0 0.00 0.00 0.00 62 1016.6
20260901165556 93 203 1.0 9.0 0.00 0.00 0.00 60 1016.6
20260901165056 92 0 3.0 9.0 0.00 0.00 0.00 61 1016.7
20260901164615 92 56 3.0 9.0 0.00 0.00 0.00 61 1016.7
20260901164052 92 86 2.0 6.0 0.00 0.00 0.00 60 1016.7
20260901163554 92 360 3.0 5.0 0.00 0.00 0.00 62 1016.7
20260901163117 92 146 1.0 5.0 0.00 0.00 0.00 61 1016.9
20260901162551 92 184 1.0 5.0 0.00 0.00 0.00 61 1017.0
20260901162053 92 0 0.0 8.0 0.00 0.00 0.00 61 1017.1
20260901161605 92 28 2.0 8.0 0.00 0.00 0.00 61 1017.1
20260901161051 91 32 3.0 8.0 0.00 0.00 0.00 62 1017.0
20260901160555 91 329 1.0 9.0 0.00 0.00 0.00 63 1017.0
20260901160105 91 74 3.0 9.0 0.00 0.00 0.00 64 1017.1
20260901155556 91 304 3.0 9.0 0.00 0.00 0.00 65 1017.1
20260901155055 90 102 2.0 10.0 0.00 0.00 0.00 65 1017.0
20260901154558 90 313 4.0 10.0 0.00 0.00 0.00 68 1017.1
20260901154053 90 76 3.0 8.0 0.00 0.00 0.00 69 1017.0
20260901153552 89 219 1.0 6.0 0.00 0.00 0.00 68 1017.1
20260901153104 89 323 3.0 6.0 0.00 0.00 0.00 72 1017.1
20260901152552 88 51 3.0 8.0 0.00 0.00 0.00 72 1017.1
20260901152052 88 296 3.0 8.0 0.00 0.00 0.00 71 1017.0
20260901151606 88 35 3.0 8.0 0.00 0.00 0.00 75 1016.9
20260901151052 87 65 3.0 8.0 0.00 0.00 0.00 76 1016.9
20260901150552 87 32 3.0 7.0 0.00 0.00 0.00 77 1017.1
20260901145552 86 290 2.0 6.0 0.00 0.00 0.00 80 1017.1
20260901145052 86 5 2.0 6.0 0.00 0.00 0.00 82 1017.0
20260901144556 85 0 2.0 8.0 0.00 0.00 0.00 82 1017.0
20260901144052 86 342 3.0 8.0 0.00 0.00 0.00 82 1017.1
20260901143552 85 278 2.0 8.0 0.00 0.00 0.00 82 1017.1
20260901143104 85 327 3.0 8.0 0.00 0.00 0.00 83 1017.1
20260901142553 85 327 3.0 8.0 0.00 0.00 0.00 83 1017.1
20260901142052 84 95 1.0 4.0 0.00 0.00 0.00 85 1017.1
20260901141601 84 51 1.0 4.0 0.00 0.00 0.00 86 1017.1
20260901141052 83 255 1.0 5.0 0.00 0.00 0.00 87 1017.0
20260901140552 83 0 1.0 5.0 0.00 0.00 0.00 88 1017.0
20260901140104 82 68 0.0 4.0 0.00 0.00 0.00 89 1017.1
20260901135555 82 54 1.0 4.0 0.00 0.00 0.00 90 1017.1
20260901135055 81 0 1.0 4.0 0.00 0.00 0.00 91 1017.0
20260901134602 80 322 1.0 4.0 0.00 0.00 0.00 92 1017.0
20260901134052 80 0 0.0 4.0 0.00 0.00 0.00 92 1017.0
20260901133552 80 72 1.0 4.0 0.00 0.00 0.00 93 1017.0
20260901133109 79 0 0.0 2.0 0.00 0.00 0.00 93 1017.0
20260901132552 79 0 0.0 2.0 0.00 0.00 0.00 93 1017.0
20260901132053 78 0 0.0 2.0 0.00 0.00 0.00 93 1016.9
20260901131556 78 192 0.0 0.0 0.00 0.00 0.00 93 1016.8
20260901131052 77 0 0.0 0.0 0.00 0.00 0.00 93 1016.7
20260901130552 77 0 0.0 0.0 0.00 0.00 0.00 93 1016.6
20260901130101 76 0 0.0 0.0 0.00 0.00 0.00 92 1016.6
20260901125554 75 0 0.0 0.0 0.00 0.00 0.00 92 1016.6
20260901125055 74 0 0.0 0.0 0.00 0.00 0.00 91 1016.6
20260901124557 74 0 0.0 0.0 0.00 0.00 0.00 91 1016.4
20260901124052 74 0 0.0 0.0 0.00 0.00 0.00 91 1016.5
20260901123552 74 0 0.0 0.0 0.00 0.00 0.00 91 1016.5
20260901123103 74 0 0.0 0.0 0.00 0.00 0.00 91 1016.5
20260901122552 73 0 0.0 0.0 0.00 0.00 0.00 90 1016.5
20260901122055 73 0 0.0 0.0 0.00 0.00 0.00 90 1016.5
20260901121558 73 0 0.0 0.0 0.00 0.00 0.00 90 1016.3
20260901121052 74 0 0.0 0.0 0.00 0.00 0.00 90 1016.3
20260901120551 74 0 0.0 0.0 0.00 0.00 0.00 90 1016.3
20260901120103 74 0 0.0 0.0 0.00 0.00 0.00 90 1016.3
20260901115552 74 0 0.0 0.0 0.00 0.00 0.00 90 1016.2
20260901115052 74 0 0.0 0.0 0.00 0.00 0.00 90 1016.3
20260901114601 74 0 0.0 0.0 0.00 0.00 0.00 90 1016.2
20260901114055 74 0 0.0 0.0 0.00 0.00 0.00 90 1016.2
20260901113552 74 0 0.0 0.0 0.00 0.00 0.00 90 1016.2
20260901113107 74 0 0.0 0.0 0.00 0.00 0.00 90 1016.1
20260901112552 74 0 0.0 0.0 0.00 0.00 0.00 90 1016.1
20260901112055 74 0 0.0 0.0 0.00 0.00 0.00 90 1016.2
20260901111608 74 0 0.0 0.0 0.00 0.00 0.00 89 1016.0
20260901111052 74 0 0.0 0.0 0.00 0.00 0.00 89 1016.0
20260901110552 74 0 0.0 0.0 0.00 0.00 0.00 89 1015.9
20260901105553 74 0 0.0 0.0 0.00 0.00 0.00 90 1015.9
20260901105052 75 0 0.0 0.0 0.00 0.00 0.00 90 1016.0
20260901104603 75 0 0.0 0.0 0.00 0.00 0.00 89 1016.0
20260901104052 75 0 0.0 0.0 0.00 0.00 0.00 89 1016.0
20260901103551 75 0 0.0 0.0 0.00 0.00 0.00 89 1015.8
20260901103057 75 0 0.0 0.0 0.00 0.00 0.00 89 1015.9
20260901102552 75 0 0.0 0.0 0.00 0.00 0.00 89 1015.8
20260901102052 75 0 0.0 0.0 0.00 0.00 0.00 89 1015.8
20260901101603 75 0 0.0 0.0 0.00 0.00 0.00 89 1015.9
20260901101052 75 0 0.0 0.0 0.00 0.00 0.00 89 1015.7
20260901100555 75 0 0.0 0.0 0.00 0.00 0.00 89 1015.8
20260901095552 75 0 0.0 0.0 0.00 0.00 0.00 89 1015.8
20260901095052 75 0 0.0 0.0 0.00 0.00 0.00 89 1015.8
20260901094600 75 0 0.0 0.0 0.00 0.00 0.00 88 1016.0
20260901094051 75 0 0.0 0.0 0.00 0.00 0.00 88 1015.8
20260901093552 75 0 0.0 0.0 0.00 0.00 0.00 88 1015.9
20260901093101 76 0 0.0 0.0 0.00 0.00 0.00 88 1015.9
20260901092557 76 0 0.0 0.0 0.00 0.00 0.00 88 1015.9
20260901092052 76 0 0.0 0.0 0.00 0.00 0.00 88 1015.9
20260901091608 76 0 0.0 0.0 0.00 0.00 0.00 88 1015.9
20260901091053 76 0 0.0 0.0 0.00 0.00 0.00 88 1016.0
20260901090555 76 0 0.0 0.0 0.00 0.00 0.00 88 1015.9
20260901090114 76 0 0.0 0.0 0.00 0.00 0.00 88 1016.0
20260901085552 76 0 0.0 0.0 0.00 0.00 0.00 88 1016.0
20260901085052 76 0 0.0 0.0 0.00 0.00 0.00 88 1016.1
20260901084606 76 0 0.0 0.0 0.00 0.00 0.00 87 1016.0
20260901084052 76 0 0.0 0.0 0.00 0.00 0.00 88 1016.0
20260901083552 76 0 0.0 0.0 0.00 0.00 0.00 87 1015.9
20260901083110 77 0 0.0 0.0 0.00 0.00 0.00 87 1016.0
20260901082552 77 0 0.0 0.0 0.00 0.00 0.00 87 1016.0
20260901082054 77 0 0.0 0.0 0.00 0.00 0.00 87 1016.0
20260901081605 77 0 0.0 0.0 0.00 0.00 0.00 87 1016.0
20260901081052 77 0 0.0 0.0 0.00 0.00 0.00 87 1016.2
20260901080552 77 0 0.0 0.0 0.00 0.00 0.00 87 1016.2
20260901080114 77 0 0.0 0.0 0.00 0.00 0.00 87 1016.4
20260901075552 77 0 0.0 0.0 0.00 0.00 0.00 87 1016.4
20260901075051 78 0 0.0 0.0 0.00 0.00 0.00 87 1016.3
20260901074559 78 0 0.0 0.0 0.00 0.00 0.00 87 1016.2
20260901074052 78 0 0.0 0.0 0.00 0.00 0.00 86 1016.2
20260901073552 78 0 0.0 0.0 0.00 0.00 0.00 86 1016.1
20260901073059 78 0 0.0 0.0 0.00 0.00 0.00 86 1016.2
20260901072552 78 0 0.0 0.0 0.00 0.00 0.00 86 1016.3
20260901072053 78 0 0.0 0.0 0.00 0.00 0.00 86 1016.3
20260901071605 78 0 0.0 0.0 0.00 0.00 0.00 86 1016.3
20260901071054 79 0 0.0 0.0 0.00 0.00 0.00 86 1016.3
20260901070551 79 0 0.0 0.0 0.00 0.00 0.00 86 1016.2
20260901070105 79 0 0.0 0.0 0.00 0.00 0.00 86 1016.3
20260901065554 79 0 0.0 0.0 0.00 0.00 0.00 86 1016.3
20260901065052 79 0 0.0 0.0 0.00 0.00 0.00 85 1016.3
20260901064620 79 0 0.0 0.0 0.00 0.00 0.00 85 1016.3
20260901064052 79 0 0.0 0.0 0.00 0.00 0.00 85 1016.3
20260901063551 79 0 0.0 0.0 0.00 0.00 0.00 85 1016.3
20260901063119 79 0 0.0 0.0 0.00 0.00 0.00 83 1016.4
20260901062552 79 0 0.0 0.0 0.00 0.00 0.00 83 1016.3
20260901062051 79 0 0.0 0.0 0.00 0.00 0.00 83 1016.2
20260901061604 79 0 0.0 0.0 0.00 0.00 0.00 83 1016.3
20260901061054 79 0 0.0 0.0 0.00 0.00 0.00 83 1016.3
20260901060559 80 0 0.0 0.0 0.00 0.00 0.00 83 1016.3
20260901060104 80 0 0.0 0.0 0.00 0.00 0.00 83 1016.2
20260901055552 80 0 0.0 0.0 0.00 0.00 0.00 82 1016.1
20260901055052 80 0 0.0 0.0 0.00 0.00 0.00 82 1016.0
20260901054555 80 0 0.0 0.0 0.00 0.00 0.00 82 1016.0
20260901054052 80 0 0.0 0.0 0.00 0.00 0.00 82 1016.0
20260901053556 80 0 0.0 0.0 0.00 0.00 0.00 82 1016.0
20260901053115 81 0 0.0 0.0 0.00 0.00 0.00 82 1015.9
20260901052555 81 0 0.0 2.0 0.00 0.00 0.00 82 1015.8
20260901052055 81 0 0.0 3.0 0.00 0.00 0.00 82 1015.8
20260901051600 81 0 0.0 3.0 0.00 0.00 0.00 82 1015.8
20260901051055 81 189 0.0 3.0 0.00 0.00 0.00 82 1015.8
20260901050552 81 0 0.0 0.0 0.00 0.00 0.00 81 1016.0
20260901050108 81 0 0.0 4.0 0.00 0.00 0.00 81 1015.8
20260901045552 81 0 0.0 4.0 0.00 0.00 0.00 81 1015.8
20260901045051 81 189 0.0 4.0 0.00 0.00 0.00 81 1015.8
20260901044607 82 188 1.0 4.0 0.00 0.00 0.00 80 1015.8
20260901044055 82 189 2.0 4.0 0.00 0.00 0.00 80 1015.8
20260901043552 82 187 2.0 5.0 0.00 0.00 0.00 80 1015.8
20260901043103 82 187 2.0 5.0 0.00 0.00 0.00 80 1015.8
20260901042555 82 186 2.0 4.0 0.00 0.00 0.00 79 1015.8
20260901042056 82 184 2.0 4.0 0.00 0.00 0.00 79 1015.8
20260901041557 82 184 2.0 3.0 0.00 0.00 0.00 78 1015.7
20260901041051 83 184 0.0 2.0 0.00 0.00 0.00 78 1015.7
20260901040552 83 0 0.0 0.0 0.00 0.00 0.00 78 1015.7
20260901040104 83 0 0.0 0.0 0.00 0.00 0.00 77 1015.6
20260901035552 83 0 0.0 3.0 0.00 0.00 0.00 77 1015.6
20260901035054 83 0 0.0 4.0 0.00 0.00 0.00 77 1015.6
20260901034559 84 0 2.0 4.0 0.00 0.00 0.00 77 1015.6
20260901034051 84 181 0.0 2.0 0.00 0.00 0.00 76 1015.8
20260901033551 84 0 0.0 3.0 0.00 0.00 0.00 76 1015.9
20260901033110 84 0 0.0 4.0 0.00 0.00 0.00 76 1015.9
20260901032551 84 0 0.0 4.0 0.00 0.00 0.00 75 1015.7
20260901032051 84 180 2.0 5.0 0.00 0.00 0.00 75 1015.8
20260901031602 85 169 2.0 5.0 0.00 0.00 0.00 75 1015.7
20260901031054 85 149 1.0 6.0 0.00 0.00 0.00 75 1015.5
20260901030552 85 147 1.0 6.0 0.00 0.00 0.00 74 1015.5
20260901030109 85 167 3.0 6.0 0.00 0.00 0.00 74 1015.4
20260901025555 85 165 2.0 8.0 0.00 0.00 0.00 74 1015.2
20260901025052 85 164 3.0 8.0 0.00 0.00 0.00 73 1015.0
20260901024609 85 191 4.0 8.0 0.00 0.00 0.00 73 1014.9